Hourly Data Report for May 17, 2012

All times are specified in Local Standard Time (LST). Add 1 hour to adjust for Daylight Saving Time where and when it is observed.

HAMILTON A
ONTARIO

43°10'25.000" N
79°56'06.000" W
237.70 m
6153193
71263
YHM

Download Data

Hourly Data (May 2012)
Hourly Data Report for May 17, 2012
Temp Definition
°C
Dew Point Temp Definition
°C
Rel Hum Definition
%
Wind Dir Definition
10's deg

Wind Spd Definition
km/h
Visibility Definition
km
Stn Press Definition
kPa
Hmdx Definition


Wind Chill Definition


Weather Definition


TIME
00:00 Legend Double Dagger 6.6 -0.6 60 31 14 10.0 99.15     LegendNANA
01:00 Legend Double Dagger 6.3 0.0 64 29 9 10.0 99.14     Clear
02:00 Legend Double Dagger 4.9 0.1 71 29 9 10.0 99.15     LegendNANA
03:00 Legend Double Dagger 2.9 0.3 83 27 8 10.0 99.17     LegendNANA
04:00 Legend Double Dagger 2.9 0.1 82 27 8 10.0 99.22     Mainly Clear
05:00 Legend Double Dagger 1.5 -0.3 88 29 9 10.0 99.26     LegendNANA
06:00 Legend Double Dagger 3.6 1.3 85 28 10 10.0 99.36     LegendNANA
07:00 Legend Double Dagger 6.6 2.1 73 28 7 10.0 99.44     Mainly Clear
08:00 Legend Double Dagger 9.5 2.2 60 32 8 10.0 99.51     LegendNANA
09:00 Legend Double Dagger 11.2 1.2 50 33 4 10.0 99.51     LegendNANA
10:00 Legend Double Dagger 12.5 0.3 43 33 7 10.0 99.48     Mainly Clear
11:00 Legend Double Dagger 13.4 0.5 41 35 9 10.0 99.49     LegendNANA
12:00 Legend Double Dagger 14.0 0.0 38 32 5 10.0 99.44     LegendNANA
13:00 Legend Double Dagger 15.2 1.4 39 9 11 10.0 99.39     Mostly Cloudy
14:00 Legend Double Dagger 16.4 1.4 36 21 7 10.0 99.36     LegendNANA
15:00 Legend Double Dagger 16.7 1.3 35 28 16 10.0 99.32     LegendNANA
16:00 Legend Double Dagger 17.5 2.4 36 21 10 10.0 99.29     Mostly Cloudy
17:00 Legend Double Dagger 16.2 5.0 47 22 18 10.0 99.29     LegendNANA
18:00 Legend Double Dagger 15.3 4.7 49 19 17 10.0 99.28     LegendNANA
19:00 Legend Double Dagger 13.2 3.6 52 20 14 10.0 99.30     Mainly Clear
20:00 Legend Double Dagger 10.7 2.6 57 21 9 10.0 99.33     LegendNANA
21:00 Legend Double Dagger 10.5 2.4 57 20 5 10.0 99.32     LegendNANA
22:00 Legend Double Dagger 9.2 2.8 64 25 8 10.0 99.34     Clear
23:00 Legend Double Dagger 9.7 2.1 59 28 7 10.0 99.34     LegendNANA

Notes on Data Quality.

Legend

  • E = Estimated
  • M = Missing
  • NA = Not Available
  • ‡ = Partner data that is not subject to review by the National Climate Archives
Date modified: